Regional Weather Roundup
Issued by NWS Lake Charles, LA

Home | Current Version | Previous Version | Text Only | Print | Product List | Glossary On
Versions: 1 2 3 4 5 6 7 8 9 10 11 12 13 14 15 16 17 18 19 20 21 22 23 24 25 26 27 28 29 30 31 32 33 34 35 36 37 38 39 40 41 42 43 44 45 46 47 48 49 50
000
ASUS44 KLCH 020910
RWRLCH
RWRLCH
REGIONAL WEATHER ROUNDUP
NATIONAL WEATHER SERVICE LAKE CHARLES LA
400 AM CDT TUE SEP 02 2014

Note: "fair" indicates few or no clouds below 12,000 feet with no
significant weather and/or obstructions to visibility.


ACROSS SOUTHEAST TEXAS

CITY           SKY/WX    TMP DP  RH WIND       PRES   REMARKS
BEAUMONT       CLEAR     80  77  90 SE5       29.95R
BEAUMONT CITY  PTSUNNY   77  76  98 CALM      29.96S
ORANGE         SUNNY     80  80 100 CALM      29.98R
JASPER         CLEAR     74  73  95 CALM      29.99S
$$

ACROSS CENTRAL LOUISIANA

CITY           SKY/WX    TMP DP  RH WIND       PRES   REMARKS
LEESVILLE      CLOUDY    75  75 100 SE5       29.98F
FULLERTON      FOG       77  75  93 SE3       29.97S VSB 1
ALEXANDRIA INT PTCLDY    75  74  96 SE5       29.97S
ESLER FIELD    MOCLDY    75  72  90 CALM      29.99F
DERIDDER       PTSUNNY   76  74  96 CALM      30.00S FOG
OAKDALE        CLOUDY    74  73  96 CALM      29.99S FOG
OPELOUSAS        N/A     75  74  98 CALM      29.99F
$$

ACROSS SOUTHWEST AND SOUTH CENTRAL LOUISIANA

CITY           SKY/WX    TMP DP  RH WIND       PRES   REMARKS
SULPHUR        MOSUNNY   81  79  92 E5        29.98R
LAKE CHARLES   LGT RAIN  78  77  96 SE3       29.97R
CHENNAULT INT  PTCLDY    78  76  94 CALM      29.99R
CAMERON PHI    MOSUNNY   82  77  83 S12       29.97R
DEQUINCY         N/A     75  74  98 CALM      29.98R
JENNINGS         N/A     77  77  98 CALM      29.98R
LAFAYETTE      PTCLDY    77  76  96 CALM      29.99R
NEW IBERIA     CLEAR     78  75  90 E3        30.00R
ABBEVILLE        N/A     75  75  99 CALM      29.99R
PATTERSON        N/A     77  75  94 CALM      30.03R
SALT POINT       N/A     85  77  77 VRB5      29.99R
$$

SELECTED SITES ACROSS THE REGION

CITY           SKY/WX    TMP DP  RH WIND       PRES   REMARKS
HOUSTON BUSH   PTCLDY    77  75  94 CALM      29.94R
HOUSTON HOBBY  PTCLDY    80  77  90 CALM      29.93R
GALVESTON      PTCLDY    84  78  82 S14       29.94S
COLLEGE STAT   PTCLDY    77  75  93 SE5       29.94S
CONROE         MOCLDY    76  74  93 CALM      29.96R
HUNTSVILLE     PTCLDY    79  76  90 CALM      29.95S
LUFKIN         CLOUDY    80  76  87 SE5       29.96S
SHREVEPORT     MOCLDY    78  75  90 S7        29.94S
MONROE         MOCLDY    75  73  94 S6        29.99F
NATCHEZ MS     MOCLDY    75  73  94 S5        30.02F
BATON ROUGE    PTCLDY    75  74  96 E6        30.01R
N.O. INTL ARPT PTCLDY    79  74  84 CALM      30.01R
SLIDELL        MOCLDY    77  75  93 N6        30.02R
$$

MARINE REPORTS

STATION/POSITION TIME  TEMP    WIND        PRES    VSBY  WAVE
                       AIR SEA DIR/SP/G                  HT/PER
                 (UTC) (F)     (DEG/KT/KT) (MB)    (MI)  (FT/S)
BUOY 30 S HIGH I 0900   84 85  160/ 16/ 19 1013.0S         4/ 4
SEA RIM ST PARK  0900   83     170/ 11/ 14 1014.8R
PORT ARTHUR      0900      85  180/  4/  8 1014.4R
SABINE PASS N    0900   83 85  200/  7/ 13 1014.4R
TEXAS POINT      0900   83 85  170/ 13/ 17 1014.4R
CALCASIEU PASS   0900   83 84  190/ 12/ 15 1015.7R
LK CHARLES BEACH 0900   79 83              1015.7R
MARSH ISLAND     NOT AVBL
FRESH WATER LOCK 0900   83 84  160/ 13/ 16 1015.0R
AMERADA PASS     0900   82 86  150/  3/  5 1015.5R
$$



USA.gov is the U.S. government's official web portal to all federal, state and local government web resources and services.